SCP
0 0 0 0 0 0 0 0 0 0 0 0 0 0 0 0 0 0 0 1 2 2 2 2 2 2 2 2 2 2 2 2 2 2 2 2 2 3 3 3 3 3 3
0 0 0 0 0 0 0 0 0 0 0 0 0 0 0 0 0 0 0 1 2 2 2 2 2 2 2 2 2 2 2 3 3 2 2 2 2 2 3 3 3 3 3
0 0 0 0 0 0 0 0 0 0 0 0 0 0 0 0 0 0 0 0 1 1 1 2 2 2 2 2 2 2 2 3 3 2 2 2 2 2 2 3 3 3 3
0 0 0 0 0 0 0 0 0 0 0 0 0 0 0 0 0 0 0 0 0 0 1 1 1 1 1 1 1 1 2 2 2 2 2 2 2 2 2 2 2 3 3
1 0 0 0 0 0 0 0 0 0 0 0 0 0 0 0 0 0 0 0 0 0 0 0 0 1 0 0 1 1 1 1 1 1 1 1 1 2 2 2 2 2 2
0 0 0 0 0 0 0 0 0 0 0 0 0 0 0 0 0 0 0 0 0 0 0 0 0 0 0 0 0 0 0 0 1 1 1 1 1 1 1 1 1 1 2
0 0 0 0 0 0 0 0 0 0 0 0 0 0 0 0 0 0 0 0 0 0 0 0 0 0 0 0 0 0 0 0 0 0 0 1 1 1 1 1 1 1 1
0 0 0 0 0 0 0 0 0 0 0 0 0 0 0 0 0 0 0 0 0 0 0 0 0 0 0 0 0 0 0 0 0 0 0 1 1 1 1 1 1 1 1
0 0 0 0 0 0 0 0 0 0 0 0 0 0 0 0 0 0 0 0 0 0 0 0 0 0 0 0 0 0 0 0 0 0 0 0 1 1 1 0 0 0 0
0 0 0 0 0 0 0 0 0 0 0 0 0 0 0 0 0 0 0 0 0 0 0 0 0 0 0 0 0 0 0 0 0 0 0 0 0 0 0 0 0 0 0
0 0 0 0 0 0 0 0 0 0 0 0 0 0 0 0 0 0 0 0 0 0 0 0 0 0 0 0 0 0 0 0 0 0 0 0 0 0 0 0 0 0 0
0 0 0 0 0 0 0 0 0 0 0 0 0 0 0 0 0 0 0 0 0 0 0 0 0 0 0 0 0 0 0 0 0 0 0 0 0 0 0 0 0 0 0
0 0 0 0 0 0 0 0 0 0 0 0 0 0 0 0 0 0 0 0 0 0 0 0 0 0 0 0 0 0 0 0 0 0 0 0 0 0 0 0 0 0 0
0 0 0 0 0 0 0 0 0 0 0 0 0 0 0 0 0 0 0 0 0 0 0 0 0 0 0 0 0 0 0 0 0 0 0 0 0 0 0 0 0 0 0
0 0 0 0 0 0 0 0 0 0 0 0 0 0 0 0 0 0 0 0 0 0 0 0 0 0 0 0 0 0 0 0 0 0 0 0 0 0 0 0 0 0 0
0 0 0 0 0 0 0 0 0 0 0 0 0 0 0 0 0 0 0 0 0 0 0 0 0 0 0 0 0 0 0 0 0 0 0 0 0 0 0 0 0 0 0
0 0 0 0 0 0 0 0 0 0 0 0 0 0 0 0 0 0 0 0 0 0 0 0 0 0 0 0 0 0 0 0 0 0 0 0 0 0 0 0 0 0 0
0 0 0 0 0 0 0 0 0 0 0 0 0 0 0 0 0 0 0 0 0 0 0 0 0 0 0 0 0 0 0 0 0 0 0 0 0 0 0 0 0 0 0
0 0 0 0 0 0 0 0 0 0 0 0 0 0 0 0 0 0 0 0 0 0 0 0 0 0 0 0 0 0 0 0 0 0 0 0 0 0 0 0 0 0 0
0 0 0 0 0 0 0 0 0 0 0 0 0 0 0 0 0 0 0 0 0 0 0 0 0 0 0 0 0 0 0 0 0 0 0 0 0 0 0 0 0 0 0
0 0 0 0 0 0 0 0 0 0 0 0 0 0 0 0 0 0 0 0 0 0 0 0 0 0 0 0 0 0 0 0 0 0 0 0 0 0 0 0 0 0 0
0 0 0 0 0 0 0 0 0 0 0 0 0 0 0 0 0 0 0 0 0 0 0 0 0 0 0 0 0 0 0 0 0 0 0 0 0 0 0 0 0 0 0
0 0 0 0 0 0 0 0 0 0 0 0 0 0 0 0 0 0 0 0 0 0 0 0 0 0 0 0 0 0 0 0 0 0 0 0 0 0 0 0 0 0 0
0 0 0 0 0 0 0 0 0 0 0 0 0 0 0 0 0 0 0 0 0 0 0 0 0 0 0 0 0 0 0 0 0 0 0 0 0 0 0 0 0 0 0
0 0 0 0 0 0 0 0 0 0 0 0 0 0 0 0 0 0 0 0 0 0 0 0 0 0 0 0 0 0 0 0 0 0 0 0 0 0 0 0 0 0 0
0 0 0 0 0 0 0 0 0 0 0 0 0 0 0 0 0 0 0 0 0 0 0 0 0 0 0 0 0 0 0 0 0 0 0 0 0 0 0 0 0 0 0
Wind_Speed
3 2 1 1 1 1 1 1 2 3 4 5 6 7 7 7 7 6 5 10 8 6 6 7 8 8 8 8 7 6 6 6 5 5 5 5 5 5 4 4 4 5 6
3 3 2 1 1 1 2 3 4 5 5 5 7 7 7 7 7 7 6 8 12 12 11 10 9 9 10 9 8 6 6 5 5 5 5 5 6 5 5 5 4 4 4
4 3 2 2 2 3 5 5 6 5 5 5 6 6 6 6 6 7 7 6 6 11 14 13 10 8 8 9 9 8 8 7 6 5 4 5 5 5 5 5 5 4 4
4 3 3 3 4 4 4 5 4 5 5 4 4 4 4 4 6 6 7 7 6 6 10 15 15 14 12 9 7 6 6 6 6 6 6 5 5 5 5 5 5 5 4
5 5 5 5 5 5 5 5 4 3 3 3 3 4 4 4 4 6 8 8 8 7 7 11 16 16 16 15 14 12 10 8 7 6 6 7 6 6 6 6 6 6 6
8 8 7 7 6 6 5 4 5 4 3 2 3 4 4 4 4 5 6 6 6 8 8 8 8 10 15 15 14 13 12 11 11 9 8 8 8 8 7 8 8 7 6
9 8 7 7 6 5 4 3 3 5 5 3 2 3 3 4 4 4 4 5 6 6 6 6 5 4 5 12 13 13 13 12 12 11 11 11 10 10 10 11 11 10 9
9 9 8 6 5 5 4 3 3 3 3 4 2 2 2 2 2 3 2 3 4 3 4 4 4 4 3 3 7 12 12 12 13 13 13 13 12 12 13 14 14 14 13
9 8 8 7 6 4 4 3 3 4 3 3 3 3 2 1 2 2 2 2 2 2 2 3 3 4 4 4 4 7 12 12 13 14 14 15 15 15 15 16 17 17 17
8 8 8 7 6 5 5 4 3 3 4 2 2 3 2 2 1 2 2 2 3 3 3 3 4 5 5 5 6 10 13 13 14 15 16 16 16 17 17 18 18 19 20
6 7 7 7 6 4 5 5 4 4 3 3 2 2 2 1 1 2 4 5 4 4 4 5 5 6 6 6 5 9 14 15 16 17 18 18 18 18 19 19 19 20 21
4 5 6 6 5 4 4 4 4 4 3 3 2 2 2 2 2 3 4 6 7 6 5 5 5 6 6 6 8 14 17 18 18 19 19 19 20 20 20 20 20 21 21
4 4 5 4 4 4 4 4 3 3 2 2 2 1 2 2 2 3 3 5 6 5 5 4 4 5 6 5 6 15 17 18 19 19 19 19 20 20 20 21 21 21 21
4 4 4 4 4 4 4 3 3 3 3 2 2 0 1 1 2 2 3 4 7 6 5 6 4 5 5 6 9 16 12 17 19 19 20 20 21 21 22 22 22 22 21
5 5 5 5 5 5 5 5 4 4 4 3 3 2 1 2 2 2 3 3 5 9 10 6 4 4 6 7 11 11 11 16 21 21 21 22 22 23 23 24 23 23 22
6 6 6 6 6 6 6 6 5 4 5 4 2 3 3 3 4 3 3 4 4 7 9 5 6 9 11 11 15 13 13 21 21 21 21 21 22 23 24 24 25 25 25
7 7 7 7 6 6 5 5 5 5 5 4 4 5 5 5 4 4 4 4 5 5 10 10 7 8 10 13 13 13 13 13 12 19 21 21 21 21 21 22 23 23 24
6 6 6 6 6 5 5 5 4 4 4 5 5 6 7 6 7 6 5 6 6 6 8 13 11 10 12 13 14 14 13 12 11 17 21 21 21 20 18 18 17 17 19
6 5 5 5 5 4 4 3 3 3 4 4 5 6 8 8 8 7 8 7 7 7 8 11 13 11 11 11 12 12 13 11 12 13 17 18 19 19 17 14 13 12 12
5 5 4 4 4 3 3 3 3 3 4 6 6 7 8 8 9 9 8 8 8 9 10 10 11 11 11 11 9 9 10 8 9 10 13 15 17 19 18 16 14 13 10
5 5 5 4 3 2 1 2 2 4 5 7 8 8 8 12 13 10 9 9 9 9 9 9 10 10 10 9 8 7 9 9 10 9 9 9 9 9 10 13 15 14 11
5 5 5 4 3 3 4 5 4 3 6 7 9 9 10 10 11 14 15 16 16 13 12 11 10 10 12 11 9 8 8 8 6 4 5 8 7 8 9 8 12 14 12
4 4 4 4 3 4 6 6 9 5 7 7 8 8 8 9 12 9 13 17 17 19 18 13 12 11 12 11 10 9 8 8 8 6 6 8 7 9 8 8 14 14 14
3 3 3 3 2 3 5 7 10 7 7 8 8 9 9 10 10 11 12 12 12 13 14 10 9 10 10 9 8 7 8 8 8 7 6 6 5 5 6 6 10 13 13
3 2 2 2 2 3 6 8 9 7 7 9 9 9 10 10 12 14 13 12 13 11 12 13 13 12 12 11 8 6 6 6 7 6 3 3 3 3 4 4 5 9 11
3 2 3 3 3 4 8 10 10 5 7 8 9 9 12 12 14 16 11 10 11 10 11 11 10 9 8 8 8 6 5 6 5 4 3 4 3 3 3 2 2 2 4
Wind_Direction
185 189 196 182 163 117 92 42 37 49 54 53 51 49 41 36 36 34 22 23 23 6 331 306 293 285 281 279 276 271 260 248 237 228 221 216 215 217 218 222 227 228 229
178 179 180 146 106 99 87 78 74 76 67 64 57 49 44 40 38 38 35 30 31 29 20 3 338 318 302 294 291 287 282 268 252 234 221 216 211 208 207 207 213 216 222
178 169 150 115 96 97 96 89 80 73 68 64 57 47 42 38 41 42 41 38 32 34 33 27 16 354 322 303 293 286 286 283 272 249 223 204 194 191 193 196 199 200 207
161 137 116 100 96 91 90 88 79 73 59 61 65 47 40 42 51 55 53 47 43 38 35 38 38 35 28 15 -0 338 316 301 286 274 260 244 228 207 195 192 197 199 204
121 110 98 89 86 78 70 79 65 75 64 57 78 62 42 50 53 65 62 56 53 51 46 40 40 39 38 34 30 23 14 0 343 314 289 269 258 241 223 213 211 213 219
103 101 94 86 83 81 72 73 78 63 61 43 67 66 49 52 56 57 63 63 58 57 53 47 37 30 31 27 21 17 10 2 353 343 322 300 283 269 251 230 221 216 217
101 99 99 88 83 87 92 101 95 71 44 17 75 62 44 46 59 52 56 65 59 51 47 42 35 27 15 17 10 5 0 352 342 332 321 313 307 288 265 249 238 229 223
104 105 105 104 98 99 91 86 108 102 53 27 85 91 42 5 17 33 24 55 48 34 28 19 12 7 353 350 344 350 349 346 338 327 318 311 306 295 280 264 250 243 235
101 107 114 114 113 113 108 101 109 121 118 52 48 115 123 241 311 329 334 6 5 0 341 321 321 323 315 312 309 321 324 325 322 317 312 308 302 294 283 273 261 253 247
108 111 113 114 118 122 122 114 99 109 120 113 67 53 91 144 175 317 303 297 305 298 290 293 299 294 290 285 281 295 303 305 305 303 300 298 296 291 284 277 269 260 254
106 116 119 119 121 120 117 112 106 102 104 122 123 117 104 84 136 212 280 295 292 271 268 273 277 280 282 277 274 279 291 298 297 294 291 288 286 284 281 277 272 267 262
101 107 112 112 117 117 119 121 120 119 118 120 131 147 159 181 210 213 254 286 296 293 284 268 267 273 279 280 283 297 301 301 298 294 290 286 282 278 276 274 272 270 268
107 107 109 113 114 118 124 124 118 117 120 121 150 181 197 215 210 213 249 278 284 291 287 274 261 271 282 285 292 301 302 301 299 296 292 287 283 279 276 274 272 269 268
114 112 107 105 101 101 100 92 80 73 72 66 53 33 252 259 226 222 242 279 295 289 276 279 287 274 281 291 291 297 295 296 298 295 292 288 284 281 278 275 273 271 270
108 101 93 85 78 78 81 81 72 65 64 52 36 22 347 313 299 270 251 246 275 295 296 285 278 284 290 292 287 290 288 291 294 291 288 285 282 280 278 274 271 269 268
88 89 84 82 78 77 82 83 78 67 62 41 17 2 342 319 313 304 288 271 255 273 288 280 276 285 290 293 295 295 292 293 293 291 288 284 281 278 275 272 268 265 262
89 91 94 93 90 86 83 84 77 62 49 25 6 347 328 318 307 302 294 282 271 265 284 293 283 283 282 285 290 289 288 287 284 284 285 285 284 280 277 274 269 266 262
91 99 103 102 98 92 85 82 70 53 34 10 349 337 325 321 309 299 291 285 282 273 278 295 300 296 287 283 283 284 287 285 283 284 283 282 282 282 282 279 276 271 263
93 93 98 101 101 96 83 70 60 39 13 348 332 323 316 314 306 301 296 289 283 284 279 290 298 297 292 289 289 286 285 282 282 281 281 280 281 283 284 283 284 285 276
90 86 88 93 93 84 68 48 31 10 346 330 320 312 307 302 294 294 296 293 292 292 290 290 293 296 294 293 288 288 291 286 284 284 280 277 274 275 275 274 273 274 278
82 80 78 71 58 41 26 23 2 344 330 323 320 316 309 306 309 310 310 306 302 297 297 294 293 295 294 295 292 287 290 293 285 271 271 272 269 266 266 266 266 265 262
66 63 56 45 28 17 9 18 8 334 322 319 318 318 314 309 314 316 315 312 309 306 302 295 293 292 295 296 294 290 290 293 289 267 261 275 267 264 261 256 256 257 252
62 55 41 33 24 10 30 21 3 347 323 316 313 312 313 311 315 308 312 312 308 303 299 296 294 295 297 300 298 295 291 291 289 285 277 280 272 265 261 256 254 250 247
56 47 34 28 33 23 22 5 350 341 324 319 314 307 305 307 309 316 318 311 307 304 300 298 291 293 296 298 296 293 293 291 285 283 276 277 277 272 273 258 249 246 244
48 36 30 27 16 340 341 343 347 333 325 322 318 315 314 311 310 316 319 311 308 307 310 305 300 298 299 300 301 302 304 309 310 309 301 286 295 292 282 270 254 245 243
53 42 29 6 343 326 328 337 343 332 326 324 320 318 317 313 314 318 318 310 309 314 316 314 311 311 309 308 308 304 306 308 312 304 327 317 295 304 299 288 278 253 239